GW1010 Weather Reports


Display with metric or nautical units.
time (UTC)temp
F
wind
direction
speed
MPH
gust
MPH
rain 1hr
in
rain 24hr
in
rain mn
in
humidity
%
barometer
mb
20260502194543 65 257 2.0 8.0 0.00 0.00 0.00 69 1014.6
20260502194028 65 132 3.0 8.0 0.00 0.00 0.00 68 1014.7
20260502193528 65 136 2.0 10.0 0.00 0.00 0.00 70 1014.8
20260502193049 65 197 2.0 10.0 0.00 0.00 0.00 69 1015.0
20260502192528 65 243 2.0 8.0 0.00 0.00 0.00 69 1015.0
20260502192028 65 165 1.0 9.0 0.00 0.00 0.00 71 1015.1
20260502191542 65 123 3.0 10.0 0.00 0.00 0.00 69 1015.1
20260502191027 64 288 2.0 11.0 0.00 0.00 0.00 72 1015.1
20260502190528 64 123 3.0 11.0 0.00 0.00 0.00 72 1015.2
20260502190059 64 144 3.0 11.0 0.00 0.00 0.00 71 1015.3
20260502185529 64 150 2.0 8.0 0.00 0.00 0.00 72 1015.3
20260502185028 64 214 2.0 7.0 0.00 0.00 0.00 73 1015.3
20260502184540 63 271 2.0 7.0 0.00 0.00 0.00 75 1015.3
20260502184028 62 323 2.0 8.0 0.00 0.00 0.00 76 1015.3
20260502183527 62 170 2.0 8.0 0.00 0.00 0.00 78 1015.3
20260502183039 61 135 1.0 7.0 0.00 0.00 0.00 80 1015.3
20260502182531 60 242 1.0 7.0 0.00 0.00 0.00 80 1015.4
20260502182028 60 134 2.0 8.0 0.00 0.00 0.00 81 1015.4
20260502181543 60 174 2.0 8.0 0.00 0.00 0.00 80 1015.5
20260502181026 60 137 0.0 4.0 0.00 0.00 0.00 81 1015.5
20260502180527 60 141 0.0 4.0 0.00 0.00 0.00 82 1015.6
20260502164028 55 0 1.0 3.0 0.00 0.00 0.00 89 1015.3
20260502163528 55 0 0.0 3.0 0.00 0.00 0.00 90 1015.3
20260502163045 55 0 0.0 2.0 0.00 0.00 0.00 91 1015.3
20260502162532 54 237 0.0 2.0 0.00 0.00 0.00 90 1015.4
20260502162029 54 0 0.0 2.0 0.00 0.00 0.00 91 1015.4
20260502161550 54 0 0.0 2.0 0.00 0.00 0.00 91 1015.4
20260502161032 54 325 1.0 2.0 0.00 0.00 0.00 91 1015.4
20260502160532 54 0 0.0 0.0 0.00 0.00 0.00 92 1015.4
20260502152028 52 256 0.0 1.0 0.00 0.00 0.00 95 1015.2
20260502151546 52 0 0.0 1.0 0.00 0.00 0.00 95 1015.2
20260502151028 52 0 0.0 1.0 0.00 0.00 0.00 95 1015.1
20260502150528 52 0 0.0 0.0 0.00 0.00 0.00 95 1015.1
20260502130530 50 0 0.0 0.0 0.00 0.00 0.00 96 1014.4
20260502123528 49 0 0.0 0.0 0.00 0.00 0.00 96 1014.3
20260502123044 49 0 0.0 0.0 0.00 0.00 0.00 96 1014.2
20260502122528 49 0 0.0 0.0 0.00 0.00 0.00 96 1014.1
20260502122029 49 0 0.0 0.0 0.00 0.00 0.00 96 1014.0
20260502121544 49 0 0.0 0.0 0.00 0.00 0.00 96 1014.0
20260502121028 49 0 0.0 0.0 0.00 0.00 0.00 96 1014.0
20260502120529 49 0 0.0 1.0 0.00 0.00 0.00 96 1014.0
20260502115528 49 0 0.0 0.0 0.00 0.00 0.00 96 1014.1
20260502115029 48 0 0.0 0.0 0.00 0.00 0.00 96 1014.0
20260502114558 48 0 0.0 0.0 0.00 0.00 0.00 96 1014.0
20260502114029 48 0 0.0 0.0 0.00 0.00 0.00 96 1014.0
20260502113529 48 0 0.0 0.0 0.00 0.00 0.00 96 1014.1
20260502113045 48 0 0.0 0.0 0.00 0.00 0.00 96 1014.1
20260502112527 47 0 0.0 0.0 0.00 0.00 0.00 96 1014.0
20260502112027 47 0 0.0 0.0 0.00 0.00 0.00 96 1014.1
20260502111545 47 0 0.0 0.0 0.00 0.00 0.00 96 1014.1
20260502111027 46 0 0.0 0.0 0.00 0.00 0.00 95 1014.0
20260502110527 46 0 0.0 0.0 0.00 0.00 0.00 95 1014.0
20260502110045 46 0 0.0 0.0 0.00 0.00 0.00 95 1014.0
20260502105532 46 0 0.0 0.0 0.00 0.00 0.00 95 1014.0
20260502105029 46 0 0.0 0.0 0.00 0.00 0.00 95 1014.0
20260502104541 46 0 0.0 0.0 0.00 0.00 0.00 95 1014.0
20260502104028 46 0 0.0 0.0 0.00 0.00 0.00 95 1013.9
20260502103528 46 0 0.0 0.0 0.00 0.00 0.00 95 1013.8
20260502103044 46 0 0.0 0.0 0.00 0.00 0.00 95 1013.9
20260502102529 46 0 0.0 0.0 0.00 0.00 0.00 95 1013.8
20260502102028 46 0 0.0 0.0 0.00 0.00 0.00 95 1013.7
20260502101559 46 0 0.0 0.0 0.00 0.00 0.00 95 1013.7
20260502101027 46 0 0.0 0.0 0.00 0.00 0.00 95 1013.7
20260502100527 46 0 0.0 0.0 0.00 0.00 0.00 95 1013.8
20260502091029 47 0 0.0 0.0 0.00 0.00 0.00 94 1014.2
20260502090527 47 0 0.0 0.0 0.00 0.00 0.00 94 1014.2
20260502071028 49 0 0.0 0.0 0.00 0.00 0.00 93 1015.0
20260502070528 49 0 0.0 0.0 0.00 0.00 0.00 93 1014.9
20260502070047 50 0 0.0 0.0 0.00 0.00 0.00 93 1014.9
20260502065529 50 0 0.0 0.0 0.00 0.00 0.00 93 1014.9
20260502065027 50 0 0.0 0.0 0.00 0.00 0.00 93 1015.0
20260502064611 50 0 0.0 0.0 0.00 0.00 0.00 92 1015.0
20260502064028 50 0 0.0 0.0 0.00 0.00 0.00 92 1015.0
20260502063527 51 0 0.0 0.0 0.00 0.00 0.00 92 1015.0
20260502063050 51 0 0.0 0.0 0.00 0.00 0.00 92 1015.1
20260502062529 51 0 0.0 0.0 0.00 0.00 0.00 93 1015.1
20260502062028 51 0 0.0 0.0 0.00 0.00 0.00 93 1015.2
20260502061536 51 0 0.0 0.0 0.00 0.00 0.00 92 1015.1
20260502061028 51 0 0.0 0.0 0.00 0.00 0.00 92 1015.1
20260502060528 51 0 0.0 0.0 0.00 0.00 0.00 92 1015.1
20260502060047 51 0 0.0 0.0 0.00 0.00 0.00 91 1015.1
20260502055528 51 0 0.0 0.0 0.00 0.00 0.00 91 1015.2
20260502055028 51 0 0.0 0.0 0.00 0.00 0.00 91 1015.2
20260502054541 52 0 0.0 0.0 0.00 0.00 0.00 91 1015.2
20260502054027 52 0 0.0 0.0 0.00 0.00 0.00 91 1015.1
20260502053529 52 0 0.0 0.0 0.00 0.00 0.00 91 1015.1
20260502053041 52 0 0.0 0.0 0.00 0.00 0.00 90 1015.1
20260502052528 52 0 0.0 0.0 0.00 0.00 0.00 90 1015.1
20260502052028 52 0 0.0 0.0 0.00 0.00 0.00 90 1015.1
20260502051536 53 0 0.0 1.0 0.00 0.00 0.00 90 1015.1
20260502051030 53 0 0.0 1.0 0.00 0.00 0.00 90 1015.2
20260502050528 53 0 0.0 0.0 0.00 0.00 0.00 90 1015.2
20260502050037 53 0 0.0 0.0 0.00 0.00 0.00 90 1015.1
20260502045528 53 0 0.0 0.0 0.00 0.00 0.00 89 1015.1
20260502045028 53 0 0.0 1.0 0.00 0.00 0.00 89 1015.1
20260502044542 53 0 0.0 1.0 0.00 0.00 0.00 89 1015.1
20260502044028 53 239 0.0 3.0 0.00 0.00 0.00 89 1015.2
20260502043529 53 0 0.0 3.0 0.00 0.00 0.00 89 1015.1
20260502043107 54 358 0.0 3.0 0.00 0.00 0.00 89 1015.2
20260502042528 54 0 0.0 4.0 0.00 0.00 0.00 88 1015.1
20260502042028 54 0 0.0 4.0 0.00 0.00 0.00 88 1015.1
20260502041548 54 155 0.0 6.0 0.00 0.00 0.00 88 1015.0
20260502041030 54 0 1.0 6.0 0.00 0.00 0.00 87 1014.9
20260502040531 54 150 1.0 5.0 0.00 0.00 0.00 87 1014.7
20260502040040 54 297 1.0 5.0 0.00 0.00 0.00 87 1014.5
20260502035528 55 269 1.0 5.0 0.00 0.00 0.00 86 1014.4
20260502035028 55 224 0.0 4.0 0.00 0.00 0.00 86 1014.3
20260502034544 55 311 0.0 4.0 0.00 0.00 0.00 86 1014.2
20260502034028 55 264 1.0 7.0 0.00 0.00 0.00 85 1014.2
20260502033528 55 132 1.0 7.0 0.00 0.00 0.00 85 1014.1
20260502033041 55 134 1.0 8.0 0.00 0.00 0.00 85 1014.1
20260502032527 56 188 2.0 8.0 0.00 0.00 0.00 84 1014.0
20260502032028 56 172 2.0 8.0 0.00 0.00 0.00 84 1014.0
20260502031542 56 143 2.0 8.0 0.00 0.00 0.00 83 1013.9
20260502031028 57 125 2.0 6.0 0.00 0.00 0.00 82 1013.9
20260502030528 57 188 1.0 5.0 0.00 0.00 0.00 81 1013.9
20260502030046 57 222 2.0 5.0 0.00 0.00 0.00 80 1013.8
20260502025528 58 153 1.0 6.0 0.00 0.00 0.00 79 1013.6
20260502025030 58 115 1.0 6.0 0.00 0.00 0.00 78 1013.5
20260502024544 58 187 1.0 6.0 0.00 0.00 0.00 77 1013.3
20260502024028 59 205 1.0 7.0 0.00 0.00 0.00 77 1013.2
20260502023528 59 141 2.0 7.0 0.00 0.00 0.00 76 1013.1
20260502023043 60 137 1.0 4.0 0.00 0.00 0.00 75 1013.0
20260502022528 60 134 1.0 4.0 0.00 0.00 0.00 74 1013.0
20260502022030 61 123 1.0 5.0 0.00 0.00 0.00 74 1013.0
20260502021544 61 143 2.0 5.0 0.00 0.00 0.00 73 1012.9
20260502021028 61 126 2.0 6.0 0.00 0.00 0.00 72 1012.9
20260502020530 62 129 2.0 6.0 0.00 0.00 0.00 71 1012.7
20260502020043 62 127 2.0 6.0 0.00 0.00 0.00 70 1012.7
20260502015528 63 134 2.0 6.0 0.00 0.00 0.00 69 1012.7
20260502015028 64 131 1.0 5.0 0.00 0.00 0.00 68 1012.7
20260502014537 65 127 2.0 5.0 0.00 0.00 0.00 67 1012.6
20260502014028 65 145 0.0 4.0 0.00 0.00 0.00 66 1012.6
20260502013528 66 217 0.0 4.0 0.00 0.00 0.00 65 1012.6
20260502013036 67 131 1.0 6.0 0.00 0.00 0.00 63 1012.5
20260502012528 68 233 1.0 6.0 0.00 0.00 0.00 62 1012.5
20260502012031 69 204 2.0 5.0 0.00 0.00 0.00 61 1012.5
20260502011544 70 134 1.0 5.0 0.00 0.00 0.00 59 1012.5
20260502011028 71 141 2.0 5.0 0.00 0.00 0.00 56 1012.4
20260502010528 73 107 1.0 3.0 0.00 0.00 0.00 55 1012.4
20260502010043 73 140 0.0 4.0 0.00 0.00 0.00 53 1012.3
20260502005528 74 240 1.0 4.0 0.00 0.00 0.00 52 1012.4
20260502005028 74 146 0.0 3.0 0.00 0.00 0.00 52 1012.3
20260502004545 75 140 1.0 4.0 0.00 0.00 0.00 50 1012.3
20260502004028 75 0 0.0 4.0 0.00 0.00 0.00 52 1012.3
20260502003527 75 276 1.0 4.0 0.00 0.00 0.00 51 1012.3
20260502003043 75 148 1.0 4.0 0.00 0.00 0.00 51 1012.3
20260502002528 75 236 1.0 4.0 0.00 0.00 0.00 51 1012.3
20260502002027 75 0 0.0 5.0 0.00 0.00 0.00 52 1012.2
20260502001545 76 132 2.0 5.0 0.00 0.00 0.00 50 1012.2
20260502001028 76 308 1.0 5.0 0.00 0.00 0.00 51 1012.3
20260502000528 76 236 1.0 5.0 0.00 0.00 0.00 51 1012.2
20260502000043 76 231 1.0 6.0 0.00 0.00 0.00 51 1012.3
20260501235528 76 243 1.0 6.0 0.00 0.00 0.00 49 1012.2
20260501235028 77 99 1.0 5.0 0.00 0.00 0.00 50 1012.2
20260501234539 76 0 1.0 5.0 0.00 0.00 0.00 50 1012.2
20260501234028 77 291 2.0 6.0 0.00 0.00 0.00 49 1012.3
20260501233528 77 274 1.0 6.0 0.00 0.00 0.00 49 1012.4
20260501233036 77 170 2.0 7.0 0.00 0.00 0.00 50 1012.4
20260501232526 77 245 2.0 7.0 0.00 0.00 0.00 50 1012.4
20260501232030 77 137 3.0 6.0 0.00 0.00 0.00 48 1012.4
20260501231544 78 252 1.0 7.0 0.00 0.00 0.00 49 1012.4
20260501231027 78 81 2.0 11.0 0.00 0.00 0.00 49 1012.4
20260501230527 77 99 2.0 13.0 0.00 0.00 0.00 50 1012.3
20260501230044 78 117 3.0 13.0 0.00 0.00 0.00 48 1012.4
20260501225528 78 145 2.0 10.0 0.00 0.00 0.00 49 1012.5
20260501225028 78 172 3.0 10.0 0.00 0.00 0.00 48 1012.5
20260501224543 78 131 3.0 10.0 0.00 0.00 0.00 48 1012.5
20260501224027 79 167 3.0 11.0 0.00 0.00 0.00 48 1012.5
20260501223527 79 236 4.0 11.0 0.00 0.00 0.00 47 1012.6
20260501223037 80 186 2.0 10.0 0.00 0.00 0.00 47 1012.7
20260501222529 80 127 2.0 11.0 0.00 0.00 0.00 47 1012.7
20260501222027 81 33 2.0 11.0 0.00 0.00 0.00 46 1012.9
20260501221543 81 96 2.0 8.0 0.00 0.00 0.00 46 1012.9
20260501221032 81 120 3.0 8.0 0.00 0.00 0.00 46 1012.9
20260501220527 81 131 2.0 7.0 0.00 0.00 0.00 46 1012.9
20260501220046 82 245 2.0 7.0 0.00 0.00 0.00 45 1013.0
20260501215528 82 136 2.0 9.0 0.00 0.00 0.00 45 1013.0
20260501215031 83 135 3.0 9.0 0.00 0.00 0.00 43 1013.0
20260501214545 84 127 2.0 7.0 0.00 0.00 0.00 42 1013.0
20260501214027 85 136 2.0 7.0 0.00 0.00 0.00 42 1012.9
20260501213524 86 160 1.0 7.0 0.00 0.00 0.00 41 1012.9
20260501213047 86 120 2.0 7.0 0.00 0.00 0.00 41 1012.9
20260501212527 87 141 2.0 5.0 0.00 0.00 0.00 40 1012.9
20260501212027 87 137 2.0 5.0 0.00 0.00 0.00 40 1013.0
20260501211544 87 243 1.0 4.0 0.00 0.00 0.00 39 1013.0
20260501211028 86 242 0.0 5.0 0.00 0.00 0.00 40 1013.1
20260501210532 86 215 1.0 10.0 0.00 0.00 0.00 39 1013.0
20260501210043 86 129 1.0 10.0 0.00 0.00 0.00 41 1013.1
20260501205528 85 142 2.0 7.0 0.00 0.00 0.00 41 1013.2
20260501205028 86 145 2.0 6.0 0.00 0.00 0.00 42 1013.2
20260501204557 85 108 1.0 6.0 0.00 0.00 0.00 43 1013.3
20260501204028 85 134 1.0 3.0 0.00 0.00 0.00 41 1013.4
20260501203527 85 319 1.0 3.0 0.00 0.00 0.00 36 1013.4
20260501203043 84 1 1.0 4.0 0.00 0.00 0.00 36 1013.5
20260501202527 83 300 1.0 4.0 0.00 0.00 0.00 37 1013.6
20260501202028 83 315 2.0 5.0 0.00 0.00 0.00 38 1013.6
20260501201545 84 337 1.0 5.0 0.00 0.00 0.00 36 1013.5
20260501201027 84 304 2.0 5.0 0.00 0.00 0.00 36 1013.6
20260501200527 84 121 1.0 5.0 0.00 0.00 0.00 38 1013.7
20260501200037 83 262 1.0 5.0 0.00 0.00 0.00 37 1013.7
20260501195532 83 248 2.0 5.0 0.00 0.00 0.00 38 1013.8
20260501195028 83 251 0.0 3.0 0.00 0.00 0.00 40 1013.9